Estación de Peumo Norte

Ultimos registro cada 15 minutos 24
Estación Fecha / Hora Temperatura Humedad Lluvia Velocidad Dirección Radiación Presion
24 Peumo Norte 05-05-2026 05:45 10,2 92,1 0 0 142 0,6 1000,9
23 Peumo Norte 05-05-2026 05:30 10,2 92,2 0 0 157 0,6 1000,3
22 Peumo Norte 05-05-2026 05:15 10,1 92 0 0 157 0,6 1000
21 Peumo Norte 05-05-2026 05:00 10,2 92,1 0 0 159 0,6 1000
20 Peumo Norte 05-05-2026 04:45 10,3 92,4 0 0 159 0,6 999,6
19 Peumo Norte 05-05-2026 04:30 9,9 92,3 0 0 159 0,6 999,8
18 Peumo Norte 05-05-2026 04:15 9,5 91,9 0 0 159 0,6 999,7
17 Peumo Norte 05-05-2026 04:00 9,3 91,5 0 0 159 0,6 999,6
16 Peumo Norte 05-05-2026 03:45 9,4 90,7 0 0 159 0,6 999,5
15 Peumo Norte 05-05-2026 03:30 9,8 90,5 0 0 159 0,6 999,7
14 Peumo Norte 05-05-2026 03:15 9,6 89,9 0 0 159 0,6 1000
13 Peumo Norte 05-05-2026 03:00 10,2 89,7 0 0 159 0,6 1000,1
12 Peumo Norte 05-05-2026 02:45 10,8 89,6 0 0 159 0,6 1000,1
11 Peumo Norte 05-05-2026 02:30 10,6 90,2 0 0 159 0,6 999,9
10 Peumo Norte 05-05-2026 02:15 10,5 90,6 0 0 164 0,6 999,9
9 Peumo Norte 05-05-2026 02:00 10,6 91 0 0 142 0,6 1000
8 Peumo Norte 05-05-2026 01:45 10 91,3 0 0 107 0,6 1000,2
7 Peumo Norte 05-05-2026 01:30 9,8 90,7 0 0 107 0,6 1000,4
6 Peumo Norte 05-05-2026 01:15 9,9 90,4 0 0 107 0,6 1000,5
5 Peumo Norte 05-05-2026 01:00 9,8 89,8 0 0 107 0,6 1000,5
4 Peumo Norte 05-05-2026 00:45 9,4 89,2 0 0 107 0,6 1000,6
3 Peumo Norte 05-05-2026 00:30 9,7 88,6 0 0 107 0,6 1000,4
2 Peumo Norte 05-05-2026 00:15 9,8 87,7 0 0 107 0,6 1000,4
1 Peumo Norte 05-05-2026 00:00 10,1 86,6 0 0 107 0,6 1000,5